DateTimeUTC,F1_A11,F1_S11,BsB_S11,BsG_S11,BsR_S11,BbsB_S11,BbsG_S11,BbsR_S11,BaB_A11,BaG_A11,BaR_A11,Tu_S11,T_S11,Uu_S11,U_S11,P_S11,T1_A11
2021-08-21T10:00:00Z,00000200,20000000,,,,,,,-000.06,-000.21,-000.07,18.6,25.4,09.2,06.1,0676.6,31.0
2021-08-21T10:01:00Z,00000200,20000000,,,,,,,0000.11,0000.04,0000.09,18.6,25.4,09.2,06.1,0676.6,31.0
2021-08-21T10:02:00Z,00000200,20000000,,,,,,,-000.23,-000.10,-000.28,18.6,25.4,09.2,06.1,0676.6,31.0
2021-08-21T10:03:00Z,00000200,60000000,,,,,,,0000.77,0000.63,0000.35,18.6,25.4,09.2,06.1,0676.6,31.0
2021-08-21T10:04:00Z,00000200,40000000,0003.53,0002.15,0001.57,0000.07,0000.47,0000.14,0000.56,0000.81,0000.92,18.7,25.2,09.2,06.2,0677.6,31.0
2021-08-21T10:05:00Z,00000200,00000000,0003.39,0002.45,0001.48,0000.74,0000.44,0000.46,0000.83,0000.50,0000.44,18.8,25.2,09.1,06.1,0677.6,31.0
2021-08-21T10:06:00Z,00000200,00000000,0003.00,0002.42,0001.92,0000.84,0000.48,0000.68,0000.91,0000.70,0000.55,18.8,25.2,09.1,06.2,0677.6,31.0
2021-08-21T10:07:00Z,00000200,00000000,0003.22,0002.27,0002.00,0000.59,0000.41,0000.33,0000.61,0000.61,0000.05,18.8,25.2,09.2,06.2,0677.6,31.0
2021-08-21T10:08:00Z,00000200,00000000,0002.57,0002.33,0001.90,0000.53,0000.24,0000.26,0000.38,0000.42,0000.63,18.8,25.2,09.2,06.2,0677.7,31.0
2021-08-21T10:09:00Z,00000200,00000000,0002.34,0002.26,0001.59,0000.40,0000.09,0000.30,0001.13,0001.07,0000.89,18.8,25.2,09.2,06.3,0677.7,31.0
2021-08-21T10:10:00Z,00000200,00000000,0002.51,0002.48,0001.60,0000.24,0000.54,0000.46,0000.55,0000.34,0000.32,18.8,25.1,09.4,06.4,0677.7,31.0
2021-08-21T10:11:00Z,00000200,00000000,0003.06,0002.28,0001.66,0000.55,0000.39,0000.38,0000.59,0000.95,0000.65,18.8,25.2,09.3,06.3,0677.7,31.0
2021-08-21T10:12:00Z,00000200,00000000,0003.13,0002.32,0001.43,0000.17,0000.34,0000.23,0000.85,0000.18,0000.51,18.8,25.2,09.3,06.3,0677.7,31.0
2021-08-21T10:13:00Z,00000200,00000000,0002.79,0001.91,0001.44,0001.02,0000.26,-000.09,0000.71,0001.28,0000.29,18.9,25.2,09.3,06.3,0677.7,31.0
2021-08-21T10:14:00Z,00000200,00000000,0002.76,0002.28,0001.49,0000.63,0000.42,0000.16,0000.72,0000.61,0000.87,18.8,25.2,09.3,06.3,0677.8,31.0
2021-08-21T10:15:00Z,00000200,00000000,0002.77,0002.18,0001.89,0000.08,0000.41,0000.14,0000.61,0000.44,0000.05,18.9,25.2,09.3,06.3,0677.7,31.0
2021-08-21T10:16:00Z,00000200,00000000,0003.22,0002.17,0001.46,-000.09,0000.29,0000.32,0000.91,0000.72,0000.75,18.9,25.2,09.4,06.4,0677.8,31.0
2021-08-21T10:17:00Z,00000200,00000000,0003.65,0002.19,0001.61,0000.27,0000.24,0000.48,0000.70,0000.89,0000.32,18.9,25.2,09.5,06.5,0677.7,31.0
2021-08-21T10:18:00Z,00000200,00000000,0003.98,0002.31,0001.66,-000.00,0000.21,0000.27,0000.84,0000.39,0000.81,18.9,25.2,09.6,06.5,0677.7,31.0
2021-08-21T10:19:00Z,00000200,00000000,0003.68,0002.74,0001.35,0000.76,0000.37,0000.31,0000.40,0000.61,0000.26,18.9,25.2,09.5,06.5,0677.7,31.0
2021-08-21T10:20:00Z,00000200,00000000,0002.99,0002.05,0002.03,0000.76,0000.66,0000.56,0001.06,0000.88,0000.79,18.9,25.2,09.5,06.5,0677.7,31.0
2021-08-21T10:21:00Z,00000200,00000000,0003.06,0002.08,0001.31,0000.09,0000.14,-000.02,0000.52,0000.50,0000.61,18.9,25.2,09.5,06.5,0677.8,31.0
2021-08-21T10:22:00Z,00000200,00000000,0002.26,0002.09,0001.57,0000.92,0000.41,0000.24,0000.80,0000.96,0000.51,18.9,25.2,09.5,06.5,0677.8,31.0
2021-08-21T10:23:00Z,00000200,00000000,0002.66,0001.79,0001.23,0000.13,0000.18,0000.12,0000.91,0000.57,0000.56,18.9,25.2,09.5,06.5,0677.8,31.0
2021-08-21T10:24:00Z,00000200,00000000,0002.36,0002.07,0001.61,0000.45,0000.39,0000.40,0000.26,0000.77,0000.28,18.9,25.2,09.4,06.4,0677.8,31.0
2021-08-21T10:25:00Z,00000200,00000000,0002.25,0002.46,0001.64,0001.01,0000.25,0000.24,0001.06,0000.68,0000.40,18.9,25.2,09.5,06.5,0677.8,31.0
2021-08-21T10:26:00Z,00000200,00000000,0001.89,0001.91,0001.26,0000.55,0000.59,0000.46,0000.41,0000.34,0000.94,18.9,25.2,09.5,06.5,0677.7,31.0
2021-08-21T10:27:00Z,00000200,00000000,0002.97,0001.96,0001.05,0000.69,0000.52,0000.11,0000.77,0000.64,0000.37,18.9,25.2,09.6,06.5,0677.7,31.0
2021-08-21T10:28:00Z,00000200,00000000,0002.71,0002.05,0001.36,0000.68,0000.27,0000.20,0000.67,0000.69,0000.19,18.9,25.2,09.6,06.5,0677.7,31.0
2021-08-21T10:29:00Z,00000200,00000000,0002.49,0001.91,0001.55,0000.68,0000.25,0000.55,0000.60,0000.60,0000.64,18.9,25.2,09.6,06.6,0677.7,31.0
2021-08-21T10:30:00Z,00000200,00000000,0002.81,0001.56,0001.40,0000.70,0000.40,-000.09,0000.73,0000.37,0000.44,18.9,25.2,09.6,06.5,0677.7,31.0
2021-08-21T10:31:00Z,00000200,00000000,0003.46,0001.59,0001.38,0000.70,0000.17,0000.15,0000.56,0000.54,0000.70,18.9,25.2,09.6,06.6,0677.7,31.0
2021-08-21T10:32:00Z,00000200,00000000,0002.50,0001.85,0001.53,0000.41,0000.41,0000.34,0000.58,0000.70,0000.28,18.9,25.2,09.7,06.6,0677.7,31.0
2021-08-21T10:33:00Z,00000200,00000000,0003.02,0001.82,0001.53,0000.47,0000.21,0000.55,0000.50,0000.49,0000.28,18.9,25.2,09.7,06.6,0677.8,31.0
2021-08-21T10:34:00Z,00000200,00000000,0002.84,0001.88,0001.16,-000.09,0000.63,0000.37,0000.33,0000.13,0000.26,18.9,25.2,09.6,06.6,0677.7,31.0
2021-08-21T10:35:00Z,00000200,00000000,0001.87,0001.70,0001.17,0000.04,0000.37,0000.15,0000.70,0000.67,0000.38,19.0,25.2,09.6,06.6,0677.7,31.0
2021-08-21T10:36:00Z,00000200,00000000,0001.91,0001.52,0001.12,-000.04,0000.50,0000.05,0000.69,0000.48,0000.07,19.0,25.2,09.6,06.6,0677.8,31.0
2021-08-21T10:37:00Z,00000200,00000000,0001.80,0002.06,0001.36,0000.40,0000.55,0000.18,0000.46,0000.58,0000.85,19.0,25.2,09.7,06.6,0677.8,31.0
2021-08-21T10:38:00Z,00000200,00000000,0002.81,0001.74,0001.32,0000.96,0000.17,0000.21,0000.69,0000.99,0000.27,19.0,25.2,09.7,06.6,0677.8,31.0
2021-08-21T10:39:00Z,00000200,00000000,0001.87,0001.87,0001.18,-000.29,0000.49,0000.13,0000.42,-000.14,0000.60,19.0,25.2,09.7,06.6,0677.8,31.0
2021-08-21T10:40:00Z,00000200,00000000,0002.28,0001.95,0001.40,-000.35,0000.55,0000.46,0000.70,0001.03,0000.19,19.0,25.3,09.6,06.6,0677.8,31.0
2021-08-21T10:41:00Z,00000200,00000000,0002.64,0001.73,0001.17,0000.25,0000.43,0000.03,0000.42,0000.19,0000.77,19.0,25.3,09.6,06.6,0677.8,31.0
2021-08-21T10:42:00Z,00000200,00000000,0002.71,0001.79,0001.14,0000.72,0000.51,0000.22,0000.43,0000.58,0000.13,19.0,25.3,09.7,06.6,0677.8,31.0
2021-08-21T10:43:00Z,00000200,00000000,0001.64,0001.61,0001.19,0000.44,0000.64,0000.03,0000.72,0000.69,0000.58,19.0,25.2,09.6,06.6,0677.8,31.0
2021-08-21T10:44:00Z,00000200,00000000,0002.36,0001.71,0001.05,-000.32,0000.42,0000.50,0000.50,0000.13,0000.41,19.0,25.3,09.7,06.6,0677.8,31.0
2021-08-21T10:45:00Z,00000200,00000000,0002.35,0001.45,0001.35,-000.07,0000.44,0000.44,0000.50,0000.72,0000.27,19.0,25.3,09.7,06.7,0677.8,31.0
2021-08-21T10:46:00Z,00000200,00000000,0002.48,0001.51,0000.94,0000.24,0000.25,0000.06,0000.55,0000.79,0000.51,19.0,25.3,09.7,06.6,0677.8,31.0
2021-08-21T10:47:00Z,00000200,00000000,0001.99,0002.03,0001.16,0000.10,0000.44,0000.11,0000.48,0000.33,0000.63,19.0,25.3,09.7,06.6,0677.8,31.0
2021-08-21T10:48:00Z,00000200,00000000,0001.89,0001.61,0001.41,0000.51,0000.42,0000.12,0000.55,0000.50,0000.08,19.0,25.3,09.6,06.6,0677.8,31.0
2021-08-21T10:49:00Z,00000200,00000000,0002.04,0001.33,0001.22,0000.10,0000.44,-000.02,0000.75,0000.54,0000.34,19.1,25.3,09.7,06.6,0677.8,31.0
2021-08-21T10:50:00Z,00000200,00000000,0002.77,0001.57,0001.27,0000.21,0000.55,-000.16,0000.64,0000.64,0000.44,19.1,25.3,09.6,06.6,0677.8,31.0
2021-08-21T10:51:00Z,00000200,00000000,0002.81,0001.70,0001.29,0000.35,0000.45,0000.22,0000.50,0000.64,0000.52,19.1,25.3,09.7,06.6,0677.8,31.0
2021-08-21T10:52:00Z,00000200,00000000,0001.82,0001.41,0001.35,0000.33,0000.15,0000.13,0000.50,0000.17,0000.34,19.1,25.3,09.7,06.6,0677.8,31.0
2021-08-21T10:53:00Z,00000200,00000000,0001.80,0001.85,0001.01,0000.08,0000.13,0000.10,0000.59,0000.24,0000.60,19.1,25.3,09.7,06.7,0677.8,31.0
2021-08-21T10:54:00Z,00000200,00000000,0002.28,0001.36,0001.29,0000.40,0000.73,0000.33,0000.33,0000.84,0000.31,19.1,25.3,09.7,06.6,0677.8,31.0
2021-08-21T10:55:00Z,00000200,00000000,0002.52,0001.68,0001.33,0000.10,0000.52,0000.17,0000.28,0000.20,0000.23,19.1,25.3,09.7,06.6,0677.8,31.0
2021-08-21T10:56:00Z,00000200,00000000,0002.38,0001.44,0001.32,0000.17,0000.34,0000.08,0000.50,0000.43,0000.19,19.1,25.3,09.7,06.6,0677.8,31.0
2021-08-21T10:57:00Z,00000200,40000000,,,,,,,0000.35,0000.07,-000.02,19.1,25.4,09.2,06.3,0677.8,31.0
2021-08-21T10:58:00Z,00000200,60000000,,,,,,,-000.03,0000.11,0000.27,18.9,25.4,09.4,06.3,0676.8,31.0
2021-08-21T10:59:00Z,00000200,20000000,,,,,,,0000.20,0000.32,-000.07,18.9,25.5,09.4,06.3,0676.8,31.0
